Volver al catálogo

STARLINK-6205

ActivoComunicacionesVLEO
NORAD 56898·PAYLOAD·🇺🇸 United States

Lanzado Jun 12, 2023 desde Cape Canaveral Space Force Station

Loading…

Próximos Pases (próximas 24 horas)

TLE

ActualizadoSource: CelesTrak SupGP

Época: Sep 14, 2026, 21:59 UTC

1 56898C 23083Y   26257.91645833 -.00010935  00000+0 -39620-3 0  2572
2 56898  43.0003  93.3838 0001627 263.7639 224.1923 15.27571224    14

Sigue STARLINK-6205 en tiempo real con AllMySat

Download on the App Store